OK,225,15,643,225,2014-10-01T01:40:00,0,28071970,181331
OK,70,48,643,70,2014-10-01T01:45:00,0,28072413,181331
OK,155,21,643,155,2014-10-01T01:50:00,2,28072862,181331
OK,155,21,643,155,2014-10-01T01:55:00,0,28073309,181331
OK,155,21,643,155,2014-10-01T02:00:00,0,28073756,181331
OK,155,21,643,155,2014-10-01T02:05:00,0,28074075,181331
OK,155,21,643,155,2014-10-01T02:10:00,0,28074524,181331
OK,146,23,643,146,2014-10-01T02:15:00,1,28074964,181331
OK,146,23,643,146,2014-10-01T02:20:00,0,28075413,181331
OK,146,23,643,146,2014-10-01T02:25:00,0,28075862,181331
OK,146,23,643,146,2014-10-01T02:30:00,0,28076245,181331
OK,146,23,643,146,2014-10-01T02:35:00,0,28076694,181331
OK,146,23,643,146,2014-10-01T02:40:00,0,28077143,181331
OK,146,23,643,146,2014-10-01T02:45:00,0,28077592,181331
OK,58,58,643,58,2014-10-01T02:50:00,1,28077995,181331
OK,124,27,643,124,2014-10-01T02:55:00,1,28078444,181331
OK,124,27,643,124,2014-10-01T03:00:00,1,28078889,181331
OK,124,27,643,124,2014-10-01T03:05:00,0,28079337,181331
OK,124,27,643,124,2014-10-01T03:10:00,0,28079780,181331
OK,124,27,643,124,2014-10-01T03:15:00,0,28080229,181331
OK,124,27,643,124,2014-10-01T03:20:00,0,28080563,181331
OK,124,27,643,124,2014-10-01T03:25:00,0,28081012,181331
OK,124,27,643,124,2014-10-01T03:30:00,0,28081461,181331
OK,224,15,643,224,2014-10-01T03:35:00,1,28081908,181331
OK,203,16,643,203,2014-10-01T03:40:00,3,28082357,181331
OK,191,17,643,191,2014-10-01T03:45:00,2,28082790,181331
OK,180,18,643,180,2014-10-01T03:50:00,3,28083222,181331
OK,64,52,643,64,2014-10-01T03:55:00,1,28083671,181331
OK,192,17,643,192,2014-10-01T04:00:00,2,28084120,181331
OK,195,17,643,195,2014-10-01T04:05:00,1,28084561,181331
OK,152,22,643,152,2014-10-01T04:10:00,1,28084986,181331
OK,86,39,643,86,2014-10-01T04:15:00,8,28085435,181331
OK,86,39,643,86,2014-10-01T04:20:00,8,28085880,181331
OK,135,25,643,135,2014-10-01T04:25:00,2,28086329,181331
OK,127,26,643,127,2014-10-01T04:30:00,2,28086771,181331
OK,105,32,643,105,2014-10-01T04:35:00,4,28087220,181331
OK,101,33,643,101,2014-10-01T04:40:00,4,28087665,181331
OK,113,29,643,113,2014-10-01T04:45:00,2,28088114,181331
OK,110,30,643,110,2014-10-01T04:50:00,4,28088538,181331
OK,118,28,643,118,2014-10-01T04:55:00,3,28088987,181331
OK,98,34,643,98,2014-10-01T05:00:00,4,28089417,181331
OK,87,38,643,87,2014-10-01T05:05:00,3,28089866,181331
OK,107,31,643,107,2014-10-01T05:10:00,2,28090315,181331
OK,95,35,643,95,2014-10-01T05:15:00,5,28090659,181331
OK,92,36,643,92,2014-10-01T05:20:00,4,28091108,181331
OK,110,30,643,110,2014-10-01T05:25:00,7,28091557,181331
OK,103,32,643,103,2014-10-01T05:30:00,8,28091974,181331
OK,92,36,643,92,2014-10-01T05:35:00,7,28092423,181331
OK,93,36,643,93,2014-10-01T05:40:00,9,28092867,181331
OK,102,33,643,102,2014-10-01T05:45:00,7,28093308,181331
OK,103,32,643,103,2014-10-01T05:50:00,9,28093739,181331
OK,104,32,643,104,2014-10-01T05:55:00,10,28094188,181331
OK,98,34,643,98,2014-10-01T06:00:00,9,28094599,181331
OK,99,34,643,99,2014-10-01T06:05:00,7,28095044,181331
OK,99,34,643,99,2014-10-01T06:10:00,6,28095491,181331
OK,90,37,643,90,2014-10-01T06:15:00,7,28095940,181331
OK,99,34,643,99,2014-10-01T06:20:00,8,28096353,181331
OK,92,36,643,92,2014-10-01T06:25:00,11,28096802,181331
OK,91,37,643,91,2014-10-01T06:30:00,9,28097236,181331
OK,92,36,643,92,2014-10-01T06:35:00,6,28097685,181331
OK,96,35,643,96,2014-10-01T06:40:00,6,28098134,181331
OK,90,37,643,90,2014-10-01T06:45:00,8,28098571,181331
OK,96,35,643,96,2014-10-01T06:50:00,8,28099015,181331
OK,96,35,643,96,2014-10-01T06:55:00,4,28099463,181331
OK,100,33,643,100,2014-10-01T07:00:00,5,28099806,181331
OK,101,33,643,101,2014-10-01T07:05:00,7,28100255,181331
OK,92,36,643,92,2014-10-01T07:10:00,13,28100562,181331
OK,97,34,643,97,2014-10-01T07:15:00,20,28101011,181331
OK,126,26,643,126,2014-10-01T07:20:00,19,28101382,181331
OK,74,45,643,74,2014-10-01T07:25:00,9,28101831,181331
OK,83,40,643,83,2014-10-01T07:30:00,10,28102267,181331
OK,97,34,643,97,2014-10-01T07:35:00,6,28102716,181331
OK,95,35,643,95,2014-10-01T07:40:00,7,28103143,181331
OK,102,33,643,102,2014-10-01T07:45:00,9,28103590,181331
OK,97,34,643,97,2014-10-01T07:50:00,6,28104035,181331
OK,92,36,643,92,2014-10-01T07:55:00,3,28104480,181331
OK,80,42,643,80,2014-10-01T08:00:00,7,28104921,181331
OK,116,29,643,116,2014-10-01T08:05:00,13,28105366,181331
OK,158,21,643,158,2014-10-01T08:10:00,14,28105806,181331
OK,194,17,643,194,2014-10-01T08:15:00,14,28106255,181331
OK,104,32,643,104,2014-10-01T08:20:00,10,28106692,181331
OK,93,36,643,93,2014-10-01T08:25:00,4,28107098,181331
OK,94,35,643,94,2014-10-01T08:30:00,4,28107530,181331
OK,98,34,643,98,2014-10-01T08:35:00,6,28107979,181331
OK,99,34,643,99,2014-10-01T08:40:00,6,28108418,181331
OK,126,26,643,126,2014-10-01T08:45:00,3,28108867,181331
OK,70,48,643,70,2014-10-01T08:50:00,10,28109295,181331
OK,65,51,643,65,2014-10-01T08:55:00,6,28109744,181331
OK,95,35,643,95,2014-10-01T09:00:00,8,28110087,181331
OK,95,35,643,95,2014-10-01T09:05:00,8,28110536,181331
OK,97,34,643,97,2014-10-01T09:10:00,11,28110959,181331
OK,98,34,643,98,2014-10-01T09:15:00,10,28111408,181331
OK,96,35,643,96,2014-10-01T09:20:00,5,28111837,181331
OK,95,35,643,95,2014-10-01T09:25:00,6,28112286,181331
OK,117,28,643,117,2014-10-01T09:30:00,9,28112627,181331
OK,80,42,643,80,2014-10-01T09:35:00,11,28113076,181331
OK,107,31,643,107,2014-10-01T09:40:00,14,28113500,181331
OK,122,27,643,122,2014-10-01T09:45:00,8,28113949,181331
OK,123,27,643,123,2014-10-01T09:50:00,0,28114381,181331
OK,69,48,643,69,2014-10-01T09:55:00,6,28114830,181331
OK,72,46,643,72,2014-10-01T10:00:00,8,28115184,181331
OK,114,29,643,114,2014-10-01T10:05:00,7,28115633,181331
OK,113,29,643,113,2014-10-01T10:10:00,10,28116045,181331
OK,83,40,643,83,2014-10-01T10:15:00,5,28116494,181331
OK,116,29,643,116,2014-10-01T10:20:00,4,28116902,181331
OK,115,29,643,115,2014-10-01T10:25:00,7,28117351,181331
OK,114,29,643,114,2014-10-01T10:30:00,3,28117776,181331
OK,81,41,643,81,2014-10-01T10:35:00,9,28118225,181331
OK,101,33,643,101,2014-10-01T10:40:00,13,28118670,181331
OK,98,34,643,98,2014-10-01T10:45:00,6,28119117,181331
OK,78,43,643,78,2014-10-01T10:50:00,7,28119561,181331
OK,78,43,643,78,2014-10-01T10:55:00,7,28120009,181331
OK,80,42,643,80,2014-10-01T11:00:00,5,28120457,181331
OK,86,39,643,86,2014-10-01T11:05:00,5,28120906,181331
OK,81,41,643,81,2014-10-01T11:10:00,4,28121289,181331
OK,153,22,643,153,2014-10-01T11:15:00,5,28121738,181331
OK,155,21,643,155,2014-10-01T11:20:00,6,28122176,181331
OK,96,35,643,96,2014-10-01T11:25:00,5,28122625,181331
OK,123,27,643,123,2014-10-01T11:30:00,5,28123066,181331
OK,124,27,643,124,2014-10-01T11:35:00,4,28123515,181331
OK,117,28,643,117,2014-10-01T11:40:00,6,28123947,181331
OK,100,33,643,100,2014-10-01T11:45:00,7,28124396,181331
OK,109,30,643,109,2014-10-01T11:50:00,4,28124798,181331
OK,260,12,643,260,2014-10-01T11:55:00,9,28125247,181331
OK,289,11,643,289,2014-10-01T12:00:00,17,28125676,181331
OK,272,12,643,272,2014-10-01T12:05:00,16,28126125,181331
OK,259,13,643,259,2014-10-01T12:10:00,18,28126477,181331
OK,174,19,643,174,2014-10-01T12:15:00,17,28126926,181331
OK,112,30,643,112,2014-10-01T12:20:00,11,28127375,181331
OK,131,25,643,131,2014-10-01T12:25:00,8,28127824,181331
OK,80,42,643,80,2014-10-01T12:30:00,3,28128252,181331
OK,121,27,643,121,2014-10-01T12:35:00,3,28128701,181331
OK,150,22,643,150,2014-10-01T12:40:00,10,28129136,181331
OK,129,26,643,129,2014-10-01T12:45:00,14,28129585,181331
OK,160,21,643,160,2014-10-01T12:50:00,19,28130019,181331
OK,180,18,643,180,2014-10-01T12:55:00,17,28130468,181331
OK,171,19,643,171,2014-10-01T13:00:00,13,28130896,181331
OK,113,29,643,113,2014-10-01T13:05:00,8,28131345,181331
OK,162,20,643,162,2014-10-01T13:10:00,6,28131782,181331
OK,203,16,643,203,2014-10-01T13:15:00,9,28132231,181331
OK,212,15,643,212,2014-10-01T13:20:00,4,28132669,181331
OK,221,15,643,221,2014-10-01T13:25:00,5,28133116,181331
OK,242,13,643,242,2014-10-01T13:30:00,13,28133554,181331
OK,246,13,643,246,2014-10-01T13:35:00,12,28134003,181331
OK,225,15,643,225,2014-10-01T13:40:00,7,28134442,181331
OK,235,14,643,235,2014-10-01T13:45:00,14,28134891,181331
OK,182,18,643,182,2014-10-01T13:50:00,15,28135310,181331
OK,172,19,643,172,2014-10-01T13:55:00,13,28135759,181331
OK,129,26,643,129,2014-10-01T14:00:00,10,28136196,181331
OK,96,35,643,96,2014-10-01T14:05:00,6,28136645,181331
OK,102,33,643,102,2014-10-01T14:10:00,4,28137085,181331
OK,100,33,643,100,2014-10-01T14:15:00,1,28137534,181331
OK,188,17,643,188,2014-10-01T14:20:00,2,28137968,181331
OK,123,27,643,123,2014-10-01T14:25:00,5,28138417,181331
OK,99,34,643,99,2014-10-01T14:30:00,4,28138845,181331
OK,99,34,643,99,2014-10-01T14:35:00,3,28139294,181331
OK,97,34,643,97,2014-10-01T14:40:00,2,28139705,181331
OK,88,38,643,88,2014-10-01T14:45:00,1,28140154,181331
OK,85,39,643,85,2014-10-01T14:50:00,3,28140596,181331
OK,101,33,643,101,2014-10-01T14:55:00,8,28141045,181331
OK,104,32,643,104,2014-10-01T15:00:00,9,28141471,181331
OK,85,39,643,85,2014-10-01T15:05:00,5,28141920,181331
OK,123,27,643,123,2014-10-01T15:10:00,4,28142348,181331
OK,123,27,643,123,2014-10-01T15:15:00,9,28142797,181331
OK,146,23,643,146,2014-10-01T15:20:00,19,28143224,181331
OK,150,22,643,150,2014-10-01T15:25:00,14,28143673,181331
OK,106,31,643,106,2014-10-01T15:30:00,7,28144121,181331
OK,102,33,643,102,2014-10-01T15:35:00,6,28144570,181331
OK,98,34,643,98,2014-10-01T15:40:00,4,28144991,181331
OK,102,33,643,102,2014-10-01T15:45:00,6,28145405,181331
OK,94,35,643,94,2014-10-01T15:50:00,6,28145854,181331
OK,86,39,643,86,2014-10-01T15:55:00,3,28146303,181331
OK,109,30,643,109,2014-10-01T16:00:00,4,28146752,181331
OK,142,23,643,142,2014-10-01T16:05:00,1,28147160,181331
OK,97,34,643,97,2014-10-01T16:10:00,6,28147604,181331
OK,96,35,643,96,2014-10-01T16:15:00,9,28148053,181331
OK,75,45,643,75,2014-10-01T16:20:00,11,28148454,181331
OK,75,45,643,75,2014-10-01T16:25:00,8,28148903,181331
OK,76,44,643,76,2014-10-01T16:30:00,4,28149342,181331
OK,72,46,643,72,2014-10-01T16:35:00,0,28149791,181331
OK,96,35,643,96,2014-10-01T16:40:00,8,28150217,181331
OK,97,34,643,97,2014-10-01T16:45:00,17,28150666,181331
OK,111,30,643,111,2014-10-01T16:50:00,11,28151084,181331
OK,72,46,643,72,2014-10-01T16:55:00,7,28151533,181331
OK,64,52,643,64,2014-10-01T17:05:00,0,28151982,181331
OK,115,29,643,115,2014-10-01T17:10:00,5,28152431,181331
OK,106,31,643,106,2014-10-01T17:15:00,6,28152877,181331
OK,103,32,643,103,2014-10-01T17:20:00,5,28153324,181331
OK,111,30,643,111,2014-10-01T17:25:00,5,28153773,181331
OK,126,26,643,126,2014-10-01T17:30:00,3,28154183,181331
OK,126,26,643,126,2014-10-01T17:35:00,1,28154632,181331
OK,104,32,643,104,2014-10-01T17:40:00,2,28155074,181331
OK,94,35,643,94,2014-10-01T17:45:00,4,28155522,181331
OK,74,45,643,74,2014-10-01T17:50:00,2,28155940,181331
OK,77,43,643,77,2014-10-01T17:55:00,2,28156389,181331
OK,91,37,643,91,2014-10-01T18:00:00,1,28156837,181331
OK,91,37,643,91,2014-10-01T18:05:00,0,28157276,181331
OK,72,46,643,72,2014-10-01T18:10:00,3,28157706,181331
OK,72,46,643,72,2014-10-01T18:15:00,5,28158154,181331
OK,77,43,643,77,2014-10-01T18:20:00,3,28158598,181331
OK,62,54,643,62,2014-10-01T18:25:00,5,28159044,181331
OK,94,35,643,94,2014-10-01T18:30:00,4,28159490,181331
OK,117,28,643,117,2014-10-01T18:35:00,1,28159825,181331
OK,102,33,643,102,2014-10-01T18:40:00,5,28160274,181331
OK,102,33,643,102,2014-10-01T18:45:00,9,28160723,181331
OK,95,35,643,95,2014-10-01T18:50:00,6,28161161,181331
OK,84,40,643,84,2014-10-01T18:55:00,6,28161610,181331
OK,94,35,643,94,2014-10-01T19:00:00,4,28162027,181331
OK,122,27,643,122,2014-10-01T19:05:00,2,28162476,181331
OK,107,31,643,107,2014-10-01T19:10:00,3,28162870,181331
OK,95,35,643,95,2014-10-01T19:15:00,2,28163309,181331
OK,116,29,643,116,2014-10-01T19:20:00,2,28163757,181331
OK,82,41,643,82,2014-10-01T19:25:00,5,28164206,181331
OK,82,41,643,82,2014-10-01T19:30:00,3,28164637,181331
OK,92,36,643,92,2014-10-01T19:35:00,2,28165086,181331
OK,119,28,643,119,2014-10-01T19:40:00,4,28165511,181331
OK,154,21,643,154,2014-10-01T19:45:00,3,28165959,181331
OK,165,20,643,165,2014-10-01T19:50:00,1,28166400,181331
OK,112,30,643,112,2014-10-01T19:55:00,2,28166762,181331
OK,128,26,643,128,2014-10-01T20:00:00,4,28167211,181331
OK,129,26,643,129,2014-10-01T20:05:00,5,28167640,181331
OK,98,34,643,98,2014-10-01T20:10:00,4,28168073,181331
OK,90,37,643,90,2014-10-01T20:15:00,2,28168522,181331
OK,69,48,643,69,2014-10-01T20:20:00,0,28168967,181331
OK,158,21,643,158,2014-10-01T20:25:00,2,28169416,181331
OK,117,28,643,117,2014-10-01T20:30:00,2,28169864,181331
OK,107,31,643,107,2014-10-01T20:35:00,2,28170290,181331
OK,129,26,643,129,2014-10-01T20:40:00,1,28170735,181331
OK,90,37,643,90,2014-10-01T20:45:00,2,28171183,181331
OK,97,34,643,97,2014-10-01T20:50:00,2,28171620,181331
OK,103,32,643,103,2014-10-01T20:55:00,2,28172066,181331
OK,105,32,643,105,2014-10-01T21:00:00,2,28172514,181331
OK,103,32,643,103,2014-10-01T21:05:00,3,28172960,181331
OK,70,48,643,70,2014-10-01T21:10:00,4,28173406,181331
OK,81,41,643,81,2014-10-01T21:15:00,4,28173855,181331
OK,145,23,643,145,2014-10-01T21:20:00,2,28174296,181331
OK,185,18,643,185,2014-10-01T21:25:00,1,28174745,181331
OK,185,18,643,185,2014-10-01T21:30:00,0,28175171,181331
OK,50,67,643,50,2014-10-01T21:35:00,1,28175567,181331
OK,85,39,643,85,2014-10-01T21:40:00,2,28176016,181331
OK,85,39,643,85,2014-10-01T21:45:00,2,28176465,181331
OK,81,41,643,81,2014-10-01T21:50:00,2,28176914,181331
OK,81,41,643,81,2014-10-01T21:55:00,2,28177270,181331
OK,81,41,643,81,2014-10-01T22:00:00,0,28177710,181331
OK,81,41,643,81,2014-10-01T22:05:00,0,28178156,181331
OK,81,41,643,81,2014-10-01T22:10:00,0,28178605,181331
OK,81,41,643,81,2014-10-01T22:15:00,0,28179052,181331
OK,81,41,643,81,2014-10-01T22:20:00,0,28179486,181331
OK,81,41,643,81,2014-10-01T22:25:00,0,28179929,181331
OK,76,44,643,76,2014-10-01T22:30:00,1,28180376,181331
OK,76,44,643,76,2014-10-01T22:35:00,1,28180774,181331
OK,76,44,643,76,2014-10-01T22:40:00,0,28181223,181331
OK,76,44,643,76,2014-10-01T22:45:00,0,28181647,181331
OK,76,44,643,76,2014-10-01T22:50:00,0,28182095,181331
OK,76,44,643,76,2014-10-01T22:55:00,0,28182542,181331
OK,156,21,643,156,2014-10-01T23:00:00,3,28182991,181331
OK,156,21,643,156,2014-10-01T23:05:00,0,28183408,181331
OK,156,21,643,156,2014-10-01T23:10:00,0,28183841,181331
OK,156,21,643,156,2014-10-01T23:15:00,0,28184286,181331
OK,156,21,643,156,2014-10-01T23:20:00,0,28184735,181331
OK,156,21,643,156,2014-10-01T23:25:00,0,28185170,181331
OK,156,21,643,156,2014-10-01T23:30:00,0,28185618,181331
OK,156,21,643,156,2014-10-01T23:35:00,0,28186047,181331
OK,156,21,643,156,2014-10-01T23:40:00,0,28186441,181331
OK,156,21,643,156,2014-10-01T23:45:00,0,28186890,181331
OK,57,59,643,57,2014-10-01T23:50:00,1,28187287,181331
OK,57,59,643,57,2014-10-01T23:55:00,0,28187730,181331
OK,57,59,643,57,2014-10-02T00:00:00,0,28188179,181331
OK,57,59,643,57,2014-10-02T00:05:00,0,28188619,181331
OK,57,59,643,57,2014-10-02T00:10:00,0,28189056,181331
OK,57,59,643,57,2014-10-02T00:15:00,0,28189505,181331
OK,57,59,643,57,2014-10-02T00:20:00,0,28189927,181331
OK,57,59,643,57,2014-10-02T00:25:00,0,28190373,181331
OK,57,59,643,57,2014-10-02T00:30:00,0,28190729,181331
OK,57,59,643,57,2014-10-02T00:35:00,0,28191178,181331
OK,57,59,643,57,2014-10-02T00:40:00,0,28191627,181331
OK,57,59,643,57,2014-10-02T00:45:00,0,28191933,181331
OK,57,59,643,57,2014-10-02T00:50:00,0,28192382,181331
OK,57,59,643,57,2014-10-02T00:55:00,0,28192815,181331
OK,57,59,643,57,2014-10-02T01:05:00,0,28193626,181331
OK,57,59,643,57,2014-10-02T01:10:00,0,28194075,181331
OK,57,59,643,57,2014-10-02T01:15:00,0,28194524,181331
OK,254,13,643,254,2014-10-02T01:25:00,0,28195209,181331
OK,254,13,643,254,2014-10-02T01:30:00,0,28195658,181331
OK,254,13,643,254,2014-10-02T01:35:00,0,28196107,181331
OK,254,13,643,254,2014-10-02T01:40:00,0,28196391,181331
OK,254,13,643,254,2014-10-02T01:45:00,0,28196840,181331
OK,254,13,643,254,2014-10-02T01:50:00,0,28197263,181331
OK,254,13,643,254,2014-10-02T01:55:00,0,28197712,181331
OK,254,13,643,254,2014-10-02T02:00:00,0,28198160,181331
OK,165,20,643,165,2014-10-02T02:05:00,0,28198608,181331
OK,165,20,643,165,2014-10-02T02:10:00,0,28199057,181331
OK,165,20,643,165,2014-10-02T02:15:00,0,28199429,181331
OK,165,20,643,165,2014-10-02T02:20:00,0,28199871,181331
OK,165,20,643,165,2014-10-02T02:25:00,0,28200313,181331
OK,165,20,643,165,2014-10-02T02:30:00,0,28200756,181331
OK,165,20,643,165,2014-10-02T02:35:00,0,28201205,181331
OK,165,20,643,165,2014-10-02T02:45:00,0,28201636,181331
OK,165,20,643,165,2014-10-02T02:50:00,0,28202085,181331
OK,165,20,643,165,2014-10-02T02:55:00,0,28202534,181331
OK,165,20,643,165,2014-10-02T03:00:00,0,28202976,181331
OK,165,20,643,165,2014-10-02T03:05:00,0,28203424,181331
OK,115,29,643,115,2014-10-02T03:10:00,1,28203859,181331
OK,115,29,643,115,2014-10-02T03:30:00,0,28204308,181331
OK,81,41,643,81,2014-10-02T03:35:00,1,28204757,181331
OK,81,41,643,81,2014-10-02T03:40:00,1,28205206,181331
OK,81,41,643,81,2014-10-02T03:45:00,0,28205634,181331
OK,81,41,643,81,2014-10-02T03:50:00,0,28206065,181331
OK,81,41,643,81,2014-10-02T03:55:00,0,28206464,181331
OK,143,23,643,143,2014-10-02T04:00:00,4,28206913,181331
OK,124,27,643,124,2014-10-02T04:05:00,0,28207362,181331
OK,69,48,643,69,2014-10-02T04:10:00,2,28207781,181331
OK,69,48,643,69,2014-10-02T04:15:00,0,28208230,181331
OK,150,22,643,150,2014-10-02T04:20:00,2,28208657,181331
OK,150,22,643,150,2014-10-02T04:25:00,0,28209106,181331
OK,122,27,643,122,2014-10-02T04:30:00,2,28209544,181331
OK,124,27,643,124,2014-10-02T04:35:00,0,28209993,181331
OK,84,40,643,84,2014-10-02T04:40:00,5,28210416,181331
OK,98,34,643,98,2014-10-02T04:45:00,2,28210865,181331
OK,98,34,643,98,2014-10-02T04:50:00,0,28211290,181331
OK,105,32,643,105,2014-10-02T04:55:00,3,28211734,181331
OK,105,32,643,105,2014-10-02T05:00:00,1,28212112,181331
OK,94,35,643,94,2014-10-02T05:05:00,4,28212561,181331
OK,121,27,643,121,2014-10-02T05:10:00,0,28212990,181331
OK,97,34,643,97,2014-10-02T05:15:00,5,28213439,181331
OK,97,34,643,97,2014-10-02T05:20:00,1,28213877,181331
OK,97,34,643,97,2014-10-02T05:25:00,6,28214326,181331
OK,95,35,643,95,2014-10-02T05:30:00,0,28214739,181331
OK,95,35,643,95,2014-10-02T05:35:00,0,28215188,181331
OK,104,32,643,104,2014-10-02T05:40:00,5,28215604,181331
OK,86,39,643,86,2014-10-02T05:45:00,2,28216053,181331
OK,95,35,643,95,2014-10-02T05:50:00,0,28216392,181331
OK,105,32,643,105,2014-10-02T05:55:00,6,28216832,181331
OK,102,33,643,102,2014-10-02T06:00:00,8,28217279,181331
OK,91,37,643,91,2014-10-02T06:05:00,3,28217728,181331
OK,91,37,643,91,2014-10-02T06:10:00,1,28218167,181331
OK,108,31,643,108,2014-10-02T06:15:00,11,28218616,181331
OK,102,33,643,102,2014-10-02T06:20:00,7,28219036,181331
OK,102,33,643,102,2014-10-02T06:25:00,5,28219485,181331
OK,91,37,643,91,2014-10-02T06:30:00,3,28219858,181331
OK,88,38,643,88,2014-10-02T06:35:00,4,28220307,181331
OK,89,37,643,89,2014-10-02T06:40:00,5,28220741,181331
OK,102,33,643,102,2014-10-02T06:45:00,1,28221190,181331
OK,93,36,643,93,2014-10-02T07:00:00,21,28221857,181331
OK,217,15,643,217,2014-10-02T07:05:00,18,28222003,181331
OK,236,14,643,236,2014-10-02T07:10:00,13,28222451,181331
OK,292,11,643,292,2014-10-02T07:15:00,0,28222900,181331
OK,292,11,643,292,2014-10-02T07:20:00,0,28223331,181331
OK,97,34,643,97,2014-10-02T07:25:00,3,28223766,181331
OK,89,37,643,89,2014-10-02T07:30:00,0,28224214,181331
OK,79,42,643,79,2014-10-02T07:35:00,3,28224569,181331
OK,154,21,643,154,2014-10-02T07:40:00,1,28225018,181331
OK,124,27,643,124,2014-10-02T07:50:00,8,28225789,181331
OK,69,48,643,69,2014-10-02T07:55:00,6,28226238,181331
OK,68,49,643,68,2014-10-02T08:00:00,5,28226679,181331
OK,76,44,643,76,2014-10-02T08:05:00,15,28227128,181331
OK,143,23,643,143,2014-10-02T08:10:00,1,28227543,181331
OK,84,40,643,84,2014-10-02T08:15:00,4,28227992,181331
OK,88,38,643,88,2014-10-02T08:20:00,0,28228351,181331
OK,64,52,643,64,2014-10-02T08:25:00,2,28228800,181331
OK,64,52,643,64,2014-10-02T08:30:00,0,28229210,181331
OK,93,36,643,93,2014-10-02T08:35:00,6,28229659,181331
OK,83,40,643,83,2014-10-02T08:40:00,2,28230009,181331
OK,83,40,643,83,2014-10-02T08:45:00,0,28230458,181331
OK,96,35,643,96,2014-10-02T08:50:00,1,28230824,181331
OK,96,35,643,96,2014-10-02T08:55:00,0,28231271,181331
OK,88,38,643,88,2014-10-02T09:00:00,4,28231696,181331
OK,112,30,643,112,2014-10-02T09:05:00,2,28232145,181331
OK,102,33,643,102,2014-10-02T09:15:00,5,28232487,181331
OK,102,33,643,102,2014-10-02T09:20:00,3,28232936,181331
OK,105,32,643,105,2014-10-02T09:25:00,1,28233385,181331
OK,105,32,643,105,2014-10-02T09:30:00,0,28233809,181331
OK,103,32,643,103,2014-10-02T09:35:00,3,28234258,181331
OK,90,37,643,90,2014-10-02T09:40:00,2,28234591,181331
OK,147,22,643,147,2014-10-02T09:45:00,3,28235040,181331
OK,148,22,643,148,2014-10-02T09:50:00,0,28235467,181331
OK,111,30,643,111,2014-10-02T09:55:00,11,28235916,181331
OK,119,28,643,119,2014-10-02T10:00:00,5,28236359,181331
OK,126,26,643,126,2014-10-02T10:05:00,0,28236806,181331
OK,73,46,643,73,2014-10-02T10:10:00,5,28237208,181331
OK,69,48,643,69,2014-10-02T10:15:00,3,28237656,181331
OK,96,35,643,96,2014-10-02T10:20:00,2,28238105,181331
OK,94,35,643,94,2014-10-02T10:25:00,4,28238552,181331
OK,90,37,643,90,2014-10-02T10:30:00,2,28238993,181331
OK,98,34,643,98,2014-10-02T10:35:00,7,28239442,181331
OK,117,28,643,117,2014-10-02T10:40:00,8,28239872,181331
OK,103,32,643,103,2014-10-02T10:45:00,3,28240321,181331
OK,103,32,643,103,2014-10-02T10:50:00,1,28240765,181331
OK,72,46,643,72,2014-10-02T10:55:00,7,28241214,181331
OK,72,46,643,72,2014-10-02T11:00:00,3,28241646,181331
OK,73,46,643,73,2014-10-02T11:05:00,0,28242094,181331
OK,67,50,643,67,2014-10-02T11:10:00,11,28242490,181331
OK,63,53,643,63,2014-10-02T11:15:00,6,28242939,181331
OK,127,26,643,127,2014-10-02T11:20:00,4,28243388,181331
OK,128,26,643,128,2014-10-02T11:25:00,3,28243713,181331
OK,128,26,643,128,2014-10-02T11:30:00,0,28244151,181331
OK,78,43,643,78,2014-10-02T11:35:00,5,28244580,181331
OK,74,45,643,74,2014-10-02T11:40:00,2,28245029,181331
OK,74,45,643,74,2014-10-02T11:45:00,0,28245478,181331
OK,96,35,643,96,2014-10-02T11:50:00,16,28245884,181331
OK,165,20,643,165,2014-10-02T11:55:00,17,28246333,181331
OK,217,15,643,217,2014-10-02T12:00:00,14,28246770,181331
OK,324,10,643,324,2014-10-02T12:05:00,5,28247218,181331
OK,391,8,643,391,2014-10-02T12:10:00,0,28247665,181331
OK,236,14,643,236,2014-10-02T12:15:00,7,28248095,181331
OK,182,18,643,182,2014-10-02T12:20:00,0,28248544,181331
OK,148,22,643,148,2014-10-02T12:25:00,14,28248991,181331
OK,149,22,643,149,2014-10-02T12:30:00,9,28249419,181331
OK,108,31,643,108,2014-10-02T12:35:00,10,28249863,181331
OK,131,25,643,131,2014-10-02T12:45:00,16,28250680,181331
OK,88,38,643,88,2014-10-02T12:50:00,4,28251458,181331
OK,263,12,643,263,2014-10-02T13:00:00,14,28251498,181331
OK,180,18,643,180,2014-10-02T13:20:00,9,28251540,181331
OK,118,28,643,118,2014-10-02T13:30:00,11,28252005,181331
OK,106,31,643,106,2014-10-02T13:35:00,8,28252142,181331
OK,108,31,643,108,2014-10-02T13:40:00,0,28252589,181331
OK,131,25,643,131,2014-10-02T13:45:00,3,28253031,181331
OK,131,25,643,131,2014-10-02T13:50:00,3,28253448,181331
OK,162,20,643,162,2014-10-02T13:55:00,11,28253897,181331
OK,155,21,643,155,2014-10-02T14:10:00,11,28254628,181331
OK,104,32,643,104,2014-10-02T14:15:00,6,28254751,181331
OK,135,25,643,135,2014-10-02T14:20:00,5,28255200,181331
OK,123,27,643,123,2014-10-02T14:25:00,0,28255649,181331
OK,105,32,643,105,2014-10-02T14:30:00,4,28256077,181331
OK,155,21,643,155,2014-10-02T14:35:00,2,28256526,181331
OK,101,33,643,101,2014-10-02T14:40:00,8,28256954,181331